Regional Weather Roundup
Issued by NWS Midland/Odessa, TX

Skip options and go directly to product.
Home | Oldest Version | Previous Version | Current Version | All | Graphics & Text | Save Text | Print | Product List | Glossary On

Skip product version selection by date and time.   
628
ASUS44 KMAF 272101
RWRMAF
MIDLAND AREA WEATHER ROUNDUP
NATIONAL WEATHER SERVICE MIDLAND TX
300 PM CST TUE JAN 27 2015

...IN SOUTHWEST TEXAS AND SOUTHEAST NEW MEXICO...

CITY           SKY/WX    TMP DP  RH WIND       PRES   REMARKS
ALPINE         SUNNY     70  45  40 W10       30.30F
ANDREWS        FAIR      71  29  21 W3        30.19F
ARTESIA        SUNNY     66  34  30 CALM      30.20F
BIG SPRING     SUNNY     74  28  18 SW3       30.21F
CARLSBAD       SUNNY     71  34  25 VRB5      30.18F
DRYDEN           N/A     76  35  22 VRB3      30.16F
FORT STOCKTON  SUNNY     69  34  27 VRB3      30.20F
GUAD PASS      SUNNY     65  32  29 SW23G30   30.28F
HOBBS          SUNNY     70  23  17 CALM      30.20F
MARFA          SUNNY     68  43  40 SE5       30.28F
MIDLAND AIRPK  SUNNY     73  33  23 CALM      30.19F
MIDLAND INTL   SUNNY     73  31  21 W6        30.18F
ODESSA         SUNNY     71  30  21 CALM      30.18F
PECOS          SUNNY     71  36  27 SW3       30.18F
PRESIDIO       FAIR      67  40  37 SE3       30.22F
SEMINOLE       SUNNY     71  30  21 S3        30.20F
SNYDER         MOSUNNY  N/A N/A N/A S7        30.18F
WINK           SUNNY     72  27  18 VRB5      30.17F
$$
...OTHER STATIONS IN TEXAS...

CITY           SKY/WX    TMP DP  RH WIND       PRES   REMARKS
ABILENE        SUNNY     77  37  23 SE5       30.15F
AMARILLO       MOSUNNY   71  31  22 SW10      30.16F
AUSTIN         MOSUNNY   79  41  25 CALM      30.12F
BROWNSVILLE    SUNNY     79  38  22 S7        30.17F
CORPUS CHRISTI SUNNY     81  37  20 VRB5      30.14F
DALLAS FTW     MOSUNNY   78  37  22 CALM      30.11F
DEL RIO        SUNNY     78  39  24 W5        30.13F
EL PASO        MOSUNNY   65  39  38 SE5       30.23F
HOUSTON INT    MOSUNNY   78  44  29 CALM      30.10F
LUBBOCK        MOSUNNY   73  31  21 W13       30.17F
SAN ANGELO     SUNNY     75  30  19 SW5       30.16F
SAN ANTONIO    MOSUNNY   80  34  19 SW7       30.13F
WACO           SUNNY     77  41  27 CALM      30.12F
WICHITA FALLS  NOT AVBL
$$
...OTHER LOCATIONS IN NEW MEXICO...

CITY           SKY/WX    TMP DP  RH WIND       PRES   REMARKS
ALAMAGORDO     SUNNY     64  27  24 CALM      30.25F
ALBUQUERQUE    PTSUNNY   56  27  32 CALM      30.27F
CANNON AFB     SUNNY     68  32  26 W12       30.18F
CLOVIS         SUNNY     68  30  24 W8G16     30.18F
HOLLOMAN AFB   SUNNY     65  36  33 NW2       30.23F
ROSWELL        SUNNY     68  31  25 VRB3      30.18F
RUIDOSO        SUNNY     59  32  36 NW6       30.32F
SANTA FE       SUNNY     57  25  29 W14       30.27F
TRUTH OR CONSE SUNNY     63  36  36 S5        30.24F
TUCUMCARI      MOSUNNY   69  32  25 SW13      30.14F
$$

USA.gov is the U.S. government's official web portal to all federal, state and local government web resources and services.